Total_Precipitation_Accumulation
0.75 0.52 0.57 0.53 0.47 0.45 0.44 0.52 0.61 0.58 0.57 0.60 0.63 0.67 0.64 0.63 0.61 0.63 0.75 0.90 1.06 1.26 1.42 1.58 1.81 2.03 2.15 2.38 2.24 1.97 1.96 2.13 2.32 2.68 3.21 3.54 3.68 3.70 3.72 3.71 3.70 3.24 3.26
0.56 0.46 0.53 0.50 0.51 0.50 0.51 0.58 0.54 0.49 0.52 0.54 0.54 0.66 0.68 0.66 0.65 0.67 0.72 0.92 1.15 1.40 1.51 1.62 1.75 2.06 2.13 2.30 2.33 2.08 1.96 2.10 2.30 2.79 3.50 4.08 4.28 4.24 4.12 4.09 3.80 3.46 3.36
0.46 0.45 0.50 0.55 0.54 0.56 0.54 0.58 0.53 0.50 0.55 0.59 0.58 0.66 0.75 0.70 0.69 0.69 0.76 0.96 1.26 1.47 1.54 1.66 1.85 2.02 2.14 2.18 2.22 2.13 2.16 2.27 2.44 2.98 3.84 4.03 4.29 4.60 4.54 4.34 3.81 3.47 3.13
0.41 0.46 0.47 0.62 0.65 0.62 0.58 0.59 0.59 0.57 0.58 0.64 0.70 0.71 0.80 0.77 0.76 0.81 0.88 1.00 1.29 1.49 1.71 1.76 1.81 1.99 2.12 2.02 1.85 2.08 2.38 2.44 2.70 3.20 3.71 3.70 3.71 4.53 4.46 4.12 3.68 3.42 3.04
0.48 0.50 0.54 0.62 0.69 0.75 0.75 0.73 0.73 0.69 0.70 0.73 0.80 0.85 0.96 0.93 0.87 0.91 0.99 1.06 1.30 1.43 1.70 1.97 1.99 1.99 1.95 1.85 1.83 2.11 2.72 2.72 3.02 3.26 3.46 3.84 4.07 4.48 4.23 4.04 3.51 3.30 3.16
0.60 0.63 0.58 0.77 0.89 0.94 0.93 0.87 0.86 0.83 0.83 0.89 0.92 0.92 1.01 1.02 1.02 1.08 1.16 1.24 1.49 1.60 1.67 1.93 2.19 2.22 2.08 2.18 2.09 2.20 2.77 3.05 3.07 3.18 3.55 4.15 4.35 4.52 4.14 4.02 3.62 3.42 3.23
0.88 0.87 0.73 0.80 0.83 0.92 0.94 0.97 0.94 0.92 0.90 0.99 1.04 1.00 1.02 0.99 1.01 1.19 1.41 1.44 1.58 1.75 1.76 1.84 2.03 2.19 2.19 2.45 2.48 2.48 2.94 3.19 3.02 3.20 3.68 4.03 4.19 4.26 4.09 4.15 3.93 3.51 3.23
1.05 1.00 0.79 0.82 0.83 0.96 1.02 1.05 1.02 1.01 1.02 1.09 1.15 1.11 1.07 1.04 1.10 1.27 1.47 1.61 1.69 1.73 1.83 1.96 1.99 2.16 2.44 2.62 2.73 2.75 2.88 2.94 2.75 3.07 3.49 3.66 3.59 3.72 3.98 4.09 3.96 3.52 3.17
1.10 1.14 0.99 1.00 1.00 1.06 1.15 1.17 1.26 1.20 1.20 1.23 1.22 1.32 1.23 1.21 1.34 1.48 1.55 1.67 1.71 1.73 1.71 1.82 2.01 1.97 2.26 2.46 2.59 2.65 2.67 2.93 2.79 2.82 3.04 3.57 3.38 3.66 3.98 3.89 3.73 3.46 3.11
1.81 1.86 1.63 1.50 1.45 1.37 1.32 1.26 1.37 1.35 1.39 1.47 1.40 1.41 1.43 1.44 1.50 1.62 1.63 1.75 1.72 1.65 1.68 1.72 1.89 1.98 2.03 2.05 2.02 2.19 2.34 2.52 2.59 2.60 3.05 3.37 3.49 4.07 4.24 3.95 3.76 3.52 3.20
2.59 2.67 2.28 1.86 1.71 1.92 1.77 1.44 1.62 1.54 1.49 1.54 1.53 1.55 1.63 1.89 2.09 2.14 1.91 2.11 2.09 1.93 1.86 1.89 1.91 1.92 1.90 1.93 1.97 2.03 1.99 1.78 2.34 2.82 3.02 3.37 3.51 4.11 4.47 4.16 3.95 3.66 3.31
2.90 2.90 2.58 2.09 2.21 2.46 2.15 2.07 2.03 1.81 1.74 1.67 1.81 1.84 2.02 2.59 2.77 2.41 2.48 2.46 2.49 2.40 2.31 2.27 2.25 2.13 1.92 1.78 1.94 1.98 1.67 1.57 2.06 2.72 3.10 3.56 3.87 4.25 4.35 4.09 4.10 3.98 3.58
3.00 2.71 2.38 2.31 2.38 2.65 2.67 2.57 2.47 2.46 2.46 2.47 2.53 2.55 2.80 2.97 2.82 2.67 2.94 2.78 2.75 2.66 2.59 2.63 2.47 2.15 2.09 2.09 2.04 1.94 1.77 1.82 2.17 2.57 3.11 3.59 3.88 4.25 4.52 4.18 4.08 4.24 3.91
2.97 2.88 2.81 2.84 2.73 2.97 3.39 3.40 3.18 3.11 3.06 3.00 2.95 2.81 3.17 3.36 3.28 3.27 3.34 3.26 3.41 3.39 3.35 3.00 2.76 2.53 2.45 2.22 2.01 1.95 2.03 2.09 2.30 2.80 3.37 3.46 3.65 3.97 4.38 4.45 4.36 4.33 4.14
3.28 3.19 3.14 3.23 3.23 3.36 3.85 4.10 3.82 3.70 3.51 3.40 3.32 3.32 3.39 3.39 3.44 3.61 3.57 3.75 3.71 3.63 3.47 3.27 2.84 2.80 2.63 2.48 2.31 2.14 2.23 2.40 2.50 2.86 3.12 3.28 3.37 3.65 4.25 4.76 4.74 4.59 4.43
3.56 3.37 3.28 3.35 3.33 3.43 3.71 3.98 4.05 3.99 4.06 3.96 3.71 3.66 3.68 3.64 3.73 3.79 3.79 3.76 3.60 3.44 3.51 3.47 3.25 3.21 3.00 2.81 2.60 2.54 2.52 2.53 2.67 2.77 2.98 3.29 3.12 3.22 3.85 4.55 5.02 4.91 4.80
3.86 3.83 3.65 3.64 3.78 3.72 3.76 3.84 3.82 3.86 4.16 4.22 4.23 4.23 3.99 3.86 3.87 3.87 3.91 3.80 3.64 3.59 3.69 3.63 3.58 3.54 3.35 3.16 3.06 2.92 2.83 2.71 2.69 2.78 3.04 3.30 3.29 3.31 3.57 4.03 4.58 4.89 4.96
4.29 4.25 3.86 3.54 3.84 3.93 3.99 4.01 4.02 4.06 4.29 4.34 4.32 4.49 4.23 4.24 4.12 4.01 3.82 3.65 3.60 3.60 3.85 3.91 3.82 3.85 3.71 3.57 3.55 3.21 3.09 3.05 2.83 2.94 3.03 3.16 3.55 3.64 3.73 3.74 4.01 4.51 4.91
4.80 4.58 4.07 3.80 3.91 4.09 4.09 4.21 4.41 4.58 4.61 4.53 4.42 4.52 4.36 4.40 4.34 4.26 4.22 4.15 4.01 4.09 4.13 3.80 3.92 4.03 4.06 3.98 3.61 3.42 3.21 3.11 2.98 2.90 2.91 2.98 3.35 3.61 3.73 3.79 3.92 4.09 4.48
4.90 4.81 4.40 4.22 4.47 4.49 4.40 4.41 4.51 4.65 4.70 4.83 4.87 4.82 4.67 4.63 4.72 4.94 4.95 4.83 4.60 4.50 4.48 4.54 4.52 4.24 4.03 3.99 3.63 3.50 3.32 3.05 2.93 2.91 2.80 2.87 3.10 3.09 3.26 3.40 3.69 3.73 3.93
4.16 4.26 4.47 4.53 4.63 4.65 4.67 4.67 4.82 4.99 5.03 5.05 5.20 5.25 5.11 5.03 5.20 5.61 5.66 5.52 5.14 4.82 4.67 4.67 4.68 4.45 4.13 3.94 3.99 3.80 3.39 3.04 2.94 2.83 2.83 2.90 2.83 2.88 3.11 3.34 3.37 3.30 3.38
3.98 4.18 4.43 4.49 4.67 4.94 5.35 5.86 6.13 6.27 6.15 6.00 5.92 5.85 5.68 5.57 5.70 5.83 5.98 5.65 5.27 5.06 4.79 4.54 4.53 4.37 4.06 4.00 4.09 4.19 3.74 3.44 2.90 2.50 2.63 2.75 2.81 2.91 2.98 3.02 3.07 3.09 3.07
3.61 3.95 4.21 4.57 4.96 5.46 6.16 6.99 7.35 7.16 6.73 6.50 6.21 6.12 5.85 5.63 5.64 5.83 5.57 5.32 5.13 4.90 4.66 4.46 4.49 4.46 4.10 3.94 4.05 4.34 4.04 3.64 3.21 2.85 2.60 2.57 2.74 2.88 2.93 2.97 2.86 2.91 2.91
3.24 3.70 4.18 4.74 5.32 6.00 6.66 7.14 7.38 7.30 7.06 6.76 6.28 5.85 5.46 5.14 4.98 4.92 4.81 4.60 4.52 4.37 4.21 3.97 4.04 4.16 4.10 3.83 3.77 3.60 3.55 3.46 3.42 3.11 2.81 2.63 2.64 2.76 2.85 2.76 2.72 2.83 2.89
3.15 3.62 4.14 4.65 5.37 5.90 6.46 6.88 7.17 7.16 7.07 6.70 5.96 5.29 4.87 4.51 4.25 3.96 3.79 3.76 3.75 3.71 3.52 3.33 3.36 3.43 3.41 3.40 3.40 3.24 3.25 3.23 3.15 3.03 2.91 2.82 2.77 2.64 2.65 2.69 2.68 2.69 2.78
3.12 3.65 4.03 4.38 5.10 5.79 6.30 6.66 6.95 6.94 6.77 6.14 5.40 4.82 4.43 4.11 3.84 3.57 3.42 3.31 3.29 3.21 3.04 2.92 2.91 2.90 2.91 2.94 3.05 3.06 3.01 2.95 2.90 2.97 2.78 2.69 2.70 2.56 2.57 2.57 2.55 2.60 2.69